Regional Weather Roundup
Issued by NWS Midland/Odessa, TX

Skip options and go directly to product.
Home | Oldest Version | Previous Version | Current Version | All | Graphics & Text | Save Text | Print | Product List | Glossary On

Skip product version selection by date and time.   
474
ASUS44 KMAF 251010
RWRMAF
MIDLAND AREA WEATHER ROUNDUP
NATIONAL WEATHER SERVICE MIDLAND TX
500 AM CDT SAT OCT 25 2014

...IN SOUTHWEST TEXAS AND SOUTHEAST NEW MEXICO...

CITY           SKY/WX    TMP DP  RH WIND       PRES   REMARKS
ALPINE         CLEAR     59  52  78 SW8       30.30S
ANDREWS        FAIR      59  58  94 SW7       30.18S
ARTESIA        NOT AVBL
BIG SPRING     CLEAR     61  58  88 SE7       30.18S
CARLSBAD       CLEAR     55  52  89 NW6       30.15S
DRYDEN           N/A     63  60  90 N8        30.14S
FORT STOCKTON  CLEAR     61  56  83 S10       30.16S
GUAD PASS      CLEAR     61  44  53 SW14      30.29F
HOBBS          CLEAR     55  55 100 S6        30.19F
MARFA          CLEAR     48  46  93 N6        30.29S
MIDLAND AIRPK  CLEAR     63  58  85 S3        30.18S
MIDLAND INTL   CLEAR     61  56  83 S3        30.17R
ODESSA         CLEAR     62  58  86 S6        30.18S
PECOS          CLEAR     55  52  90 CALM      30.14S
PRESIDIO       FAIR      66  54  65 N8        30.16S
SEMINOLE       CLEAR     55  52  90 W3        30.19S
SNYDER         CLEAR     59  55  87 SW3       30.17R
WINK           CLEAR     62  57  83 E8        30.14S
$$
...OTHER STATIONS IN TEXAS...

CITY           SKY/WX    TMP DP  RH WIND       PRES   REMARKS
ABILENE        CLEAR     66  55  67 SW3       30.12F
AMARILLO       CLEAR     60  47  61 SW8       30.15S
AUSTIN         CLEAR     56  55  97 S3        30.13S
BROWNSVILLE    CLEAR     66  64  93 NW3       30.12R
CORPUS CHRISTI CLEAR     63  60  90 NW5       30.12S
DALLAS FTW     CLEAR     66  58  75 S9        30.09S
DEL RIO        CLEAR     65  61  87 E6        30.12S
EL PASO        CLEAR     56  50  80 CALM      30.19F
HOUSTON INT    PTCLDY    58  56  93 CALM      30.13S
LUBBOCK        CLEAR     54  48  80 W6        30.16S
SAN ANGELO     CLEAR     60  56  86 SW5       30.15S
SAN ANTONIO    CLEAR     63  58  83 CALM      30.15S
WACO           CLEAR     63  58  83 S8        30.12S
WICHITA FALLS  NOT AVBL
$$
...OTHER LOCATIONS IN NEW MEXICO...

CITY           SKY/WX    TMP DP  RH WIND       PRES   REMARKS
ALAMAGORDO     NOT AVBL
ALBUQUERQUE    CLEAR     56  37  49 NE3       30.29S
CANNON AFB     CLEAR     58  49  73 NW5       30.19F
CLOVIS         CLEAR     55  46  71 W9        30.21F
HOLLOMAN AFB   PTCLDY    53  45  74 N5        30.20F
ROSWELL        CLEAR     53  50  89 CALM      30.17S
RUIDOSO        CLEAR     52  32  46 W9        30.37F
SANTA FE       CLEAR     48  22  35 N13       30.33S
TRUTH OR CONSE CLEAR     56  43  61 W9        30.24F
TUCUMCARI      CLEAR     55  48  77 W8        30.15S
$$

USA.gov is the U.S. government's official web portal to all federal, state and local government web resources and services.